Weather History for Peru, IN

Change the Weather History Date:

Monday, August 11, 2014

  Actual Average Record
Temperature  
Mean Temperature 74 °F -  
Max Temperature 79 °F 78 °F 89 °F (2010)
Min Temperature 67 °F 62 °F 53 °F (2004)
Cooling Degree Days 8    
Growing Degree Days 24 (Base 50)    
Moisture  
Dew Point 71 °F    
Average Humidity 96    
Maximum Humidity 100    
Minimum Humidity 73    
Precipitation  
Precipitation 0.15 in - - ()
Sea Level Pressure  
Sea Level Pressure 29.86 in    
Wind  
Wind Speed 5 mph (ENE)    
Max Wind Speed 16 mph    
Max Gust Speed -    
Visibility 9 miles    
Events Rain , Thunderstorm    
Averages and records for this station are not official NWS values.
T = Trace of Precipitation, MM = Missing Value Source: NWS Daily Summary

Daily Weather History Graph

Daily Weather History Graph

Search for Another Location

Airport:

Trip Planner

Search our weather history database for the weather conditions in past years. The results will help you decide how hot, cold, wet, or windy it might be!

Date:

Astronomy

Aug. 11, 2014 Rise Set
Actual Time 6:51 AM EDT 8:47 PM EDT
Civil Twilight 6:21 AM EDT 9:17 PM EDT
Nautical Twilight 5:45 AM EDT 9:53 PM EDT
Astronomical Twilight 5:05 AM EDT 10:32 PM EDT
Moon 9:14 PM EDT (8/11) 7:56 AM EDT (8/11)
Length of Visible Light 14h 56m
Length of Day
13h 56m
Full, 99% of the Moon is Illuminated
Aug 11
Full
Aug 17
Last Quarter
Aug 25
New
Sep 2
First Quarter
Sep 8
Full

Hourly Weather History & Observations

Time (EDT) Temp. Dew Point Humidity Pressure Visibility Wind Dir Wind Speed Gust Speed Precip Events Conditions
12:58 AM 74.1 °F 69.4 °F 85% 29.93 in 10.0 mi East 4.6 mph - N/A   Overcast
1:58 AM 73.0 °F 71.2 °F 94% 29.93 in 10.0 mi SE 6.9 mph - N/A   Overcast
2:58 AM 71.4 °F 71.4 °F 100% 29.91 in 10.0 mi SSE 5.8 mph - N/A   Mostly Cloudy
3:01 AM 71.6 °F 71.6 °F 100% 29.92 in 10.0 mi SSE 5.8 mph - N/A Rain Light Rain
3:06 AM 71.6 °F 71.6 °F 100% 29.92 in 9.0 mi SE 6.9 mph - N/A Rain Light Rain
3:26 AM 69.8 °F 69.8 °F 100% 29.90 in 10.0 mi SE 5.8 mph - N/A Rain Light Rain
3:46 AM 69.8 °F 69.8 °F 100% 29.90 in 8.0 mi ESE 3.5 mph - N/A Rain Light Rain
3:58 AM 69.8 °F 69.8 °F 100% 29.89 in 6.0 mi ESE 4.6 mph - 0.07 in Rain Rain
4:28 AM 69.8 °F 69.8 °F 100% 29.89 in 10.0 mi East 2.3 mph - N/A Rain Light Rain
4:45 AM 69.8 °F 69.8 °F 100% 29.89 in 10.0 mi Calm Calm - N/A   Mostly Cloudy
4:51 AM 69.8 °F 69.8 °F 100% 29.89 in 10.0 mi Calm Calm - N/A   Mostly Cloudy
4:57 AM 69.8 °F 69.8 °F 100% 29.89 in 10.0 mi NNE 1.2 mph - N/A Rain Light Rain
4:58 AM 69.3 °F 69.3 °F 100% 29.88 in 10.0 mi Calm Calm - 0.07 in Rain Light Rain
5:08 AM 69.8 °F 69.8 °F 100% 29.89 in 10.0 mi ENE 3.5 mph - N/A   Light Drizzle
5:11 AM 69.8 °F 69.8 °F 100% 29.89 in 10.0 mi NE 2.3 mph - N/A   Mostly Cloudy
5:21 AM 69.8 °F 69.8 °F 100% 29.89 in 10.0 mi Calm Calm - N/A   Overcast
5:26 AM 69.8 °F 69.8 °F 100% 29.89 in 10.0 mi ENE 3.5 mph - N/A   Overcast
5:31 AM 69.8 °F 69.8 °F 100% 29.88 in 10.0 mi East 4.6 mph - N/A   Overcast
5:45 AM 69.8 °F 69.8 °F 100% 29.88 in 10.0 mi NE 3.5 mph - N/A   Overcast
5:58 AM 69.4 °F 69.4 °F 100% 29.87 in 10.0 mi East 3.5 mph - 0.00 in   Overcast
6:18 AM 69.8 °F 69.8 °F 100% 29.88 in 10.0 mi Calm Calm - N/A   Overcast
6:33 AM 69.8 °F 69.8 °F 100% 29.89 in 10.0 mi Calm Calm - N/A   Overcast
6:38 AM 69.8 °F 69.8 °F 100% 29.89 in 8.0 mi Calm Calm - N/A   Overcast
6:48 AM 69.8 °F 69.8 °F 100% 29.88 in 9.0 mi NE 3.5 mph - N/A   Overcast
6:53 AM 69.8 °F 69.8 °F 100% 29.88 in 9.0 mi NE 3.5 mph - N/A   Overcast
6:58 AM 69.6 °F 69.6 °F 100% 29.87 in 8.0 mi ENE 3.5 mph - N/A   Mostly Cloudy
7:08 AM 69.8 °F 69.8 °F 100% 29.88 in 9.0 mi ENE 3.5 mph - N/A   Overcast
7:28 AM 69.8 °F 69.8 °F 100% 29.87 in 5.0 mi East 2.3 mph - N/A   Overcast
7:58 AM 70.2 °F 70.2 °F 100% 29.86 in 5.0 mi East 3.5 mph - N/A   Overcast
8:13 AM 69.8 °F 69.8 °F 100% 29.86 in 9.0 mi NE 1.2 mph - N/A   Overcast
8:23 AM 71.6 °F 71.6 °F 100% 29.86 in 4.0 mi SE 2.3 mph - N/A   Overcast
8:38 AM 71.6 °F 71.6 °F 100% 29.85 in 4.0 mi SE 4.6 mph - N/A   Overcast
8:43 AM 71.6 °F 71.6 °F 100% 29.85 in 7.0 mi SE 4.6 mph - N/A   Overcast
8:58 AM 71.6 °F 71.6 °F 100% 29.85 in 4.0 mi SSE 4.6 mph - N/A   Overcast
9:38 AM 73.4 °F 73.4 °F 100% 29.85 in 5.0 mi South 4.6 mph - N/A   Overcast
9:50 AM 73.4 °F 73.4 °F 100% 29.85 in 4.0 mi South 4.6 mph - N/A Rain Light Rain
9:58 AM 74.1 °F 74.1 °F 100% 29.83 in 5.0 mi SSE 4.6 mph - N/A   Light Drizzle
10:26 AM 73.4 °F 73.4 °F 100% 29.83 in 10.0 mi South 12.7 mph - N/A   Overcast
10:29 AM 73.4 °F 73.4 °F 100% 29.83 in 10.0 mi SSW 16.1 mph - N/A   Overcast
10:44 AM 71.6 °F 71.6 °F 100% 29.83 in 10.0 mi WSW 10.4 mph - N/A Rain , Thunderstorm Light Rain
10:52 AM 71.6 °F 71.6 °F 100% 29.82 in 10.0 mi West 8.1 mph - N/A Thunderstorm Thunderstorm
10:58 AM 72.9 °F 72.9 °F 100% 29.81 in 10.0 mi NW 11.5 mph - 0.00 in Thunderstorm Thunderstorm
11:03 AM 73.4 °F 73.4 °F 100% 29.82 in 10.0 mi NNW 11.5 mph - N/A Thunderstorm Mostly Cloudy
11:41 AM 75.2 °F 75.2 °F 100% 29.83 in 10.0 mi North 12.7 mph - N/A   Mostly Cloudy
11:58 AM 75.2 °F 74.8 °F 99% 29.83 in 10.0 mi NNW 12.7 mph - 0.01 in   Mostly Cloudy
12:38 PM 75.2 °F 73.4 °F 94% 29.85 in 10.0 mi North 13.8 mph - N/A   Mostly Cloudy
12:58 PM 75.0 °F 73.0 °F 94% 29.86 in 10.0 mi North 9.2 mph - N/A   Overcast
1:13 PM 75.2 °F 71.6 °F 89% 29.86 in 10.0 mi North 9.2 mph - N/A   Overcast
1:23 PM 75.2 °F 73.4 °F 94% 29.86 in 10.0 mi North 9.2 mph - N/A   Overcast
1:53 PM 75.2 °F 71.6 °F 89% 29.85 in 10.0 mi North 10.4 mph - N/A   Overcast
1:58 PM 75.4 °F 72.1 °F 90% 29.85 in 10.0 mi NNE 6.9 mph - N/A   Overcast
2:03 PM 75.2 °F 71.6 °F 89% 29.85 in 10.0 mi North 8.1 mph - N/A   Overcast
2:43 PM 75.2 °F 71.6 °F 89% 29.85 in 10.0 mi ENE 2.3 mph - N/A   Overcast
2:58 PM 74.8 °F 71.8 °F 90% 29.84 in 10.0 mi North 8.1 mph - N/A   Overcast
3:53 PM 78.8 °F 71.6 °F 78% 29.82 in 10.0 mi NW 9.2 mph - N/A   Mostly Cloudy
3:58 PM 79.0 °F 71.4 °F 78% 29.81 in 10.0 mi NNW 8.1 mph - N/A   Mostly Cloudy
4:58 PM 78.8 °F 70.5 °F 76% 29.81 in 10.0 mi Variable 5.8 mph - N/A   Mostly Cloudy
5:58 PM 77.5 °F 70.0 °F 77% 29.82 in 10.0 mi NW 9.2 mph - N/A   Mostly Cloudy
6:58 PM 78.3 °F 69.1 °F 73% 29.81 in 10.0 mi WNW 11.5 mph - N/A   Partly Cloudy
7:58 PM 76.6 °F 70.7 °F 82% 29.80 in 10.0 mi West 8.1 mph - N/A   Clear
8:58 PM 72.9 °F 72.1 °F 98% 29.81 in 10.0 mi West 5.8 mph - N/A   Partly Cloudy
9:58 PM 70.9 °F 70.9 °F 100% 29.82 in 10.0 mi West 5.8 mph - N/A   Clear
10:58 PM 68.9 °F 68.9 °F 100% 29.81 in 10.0 mi West 5.8 mph - N/A   Clear
11:58 PM 67.1 °F 67.1 °F 100% 29.80 in 10.0 mi SW 8.1 mph - N/A   Partly Cloudy